Anderson, SC

11:54 AM EDT on September 22, 2017 (GMT -0400)
Anderson Regional

Weather History for KAND - September, 2012

Change the Weather History Date:

Tuesday, September 25, 2012

  Actual Average Record
Temperature  
Mean Temperature 64 °F -  
Max Temperature 79 °F 79 °F 93 °F (1961)
Min Temperature 51 °F 58 °F 44 °F (1983)
Growing Degree Days 14 (Base 50)    
Moisture  
Dew Point 54 °F    
Average Humidity 73    
Maximum Humidity 92    
Minimum Humidity 46    
Precipitation  
Precipitation 0.00 in - - ()
Sea Level Pressure  
Sea Level Pressure 30.20 in    
Wind  
Wind Speed 1 mph (WSW)    
Max Wind Speed 10 mph    
Max Gust Speed -    
Visibility 10 miles    
Events Rain    
Averages and records for this station are not official NWS values.
T = Trace of Precipitation, MM = Missing Value Source: NWS Daily Summary

Daily Weather History Graph

Daily Weather History Graph

Search for Another Location

Airport or City:

Trip Planner

Search our weather history database for the weather conditions in past years. The results will help you decide how hot, cold, wet, or windy it might be!

Date:

Astronomy

Sep. 25, 2012 Rise Set
Actual Time 7:21 AM EDT 7:22 PM EDT
Civil Twilight 6:56 AM EDT 7:47 PM EDT
Nautical Twilight 6:27 AM EDT 8:16 PM EDT
Astronomical Twilight 5:57 AM EDT 8:46 PM EDT
Moon 4:38 PM EDT (9/25) 2:52 AM EDT (9/25)
Length of Visible Light 12h 51m
Length of Day
12h 01m
Waxing Gibbous, 80% of the Moon is Illuminated
Sep 25
Waxing Gibbous
Sep 29
Full
Oct 8
Last Quarter
Oct 15
New
Oct 21
First Quarter

Hourly Weather History & Observations

Time (EDT) Temp. Dew Point Humidity Pressure Visibility Wind Dir Wind Speed Gust Speed Precip Events Conditions
12:56 AM 53.1 °F 48.9 °F 86% 30.18 in 10.0 mi Calm Calm - N/A   Clear
1:56 AM 53.1 °F 48.9 °F 86% 30.19 in 10.0 mi Calm Calm - N/A   Clear
2:56 AM 51.1 °F 48.9 °F 92% 30.19 in 10.0 mi Calm Calm - N/A   Clear
3:56 AM 52.0 °F 48.9 °F 89% 30.19 in 10.0 mi Calm Calm - N/A   Clear
4:56 AM 53.1 °F 48.9 °F 86% 30.19 in 10.0 mi Calm Calm - N/A   Mostly Cloudy
5:56 AM 52.0 °F 48.0 °F 86% 30.20 in 10.0 mi Calm Calm - N/A   Clear
6:56 AM 51.1 °F 48.0 °F 89% 30.20 in 10.0 mi East 3.5 mph - N/A   Clear
7:56 AM 52.0 °F 48.9 °F 89% 30.21 in 10.0 mi Calm Calm - N/A   Clear
8:49 AM 57.2 °F 51.8 °F 82% 30.23 in 10.0 mi Calm Calm - N/A   Mostly Cloudy
8:56 AM 59.0 °F 52.0 °F 78% 30.22 in 10.0 mi Calm Calm - N/A   Mostly Cloudy
9:24 AM 60.8 °F 51.8 °F 72% 30.24 in 10.0 mi Calm Calm - N/A   Partly Cloudy
9:39 AM 62.6 °F 51.8 °F 68% 30.24 in 10.0 mi Calm Calm - N/A   Mostly Cloudy
9:47 AM 62.6 °F 51.8 °F 68% 30.24 in 10.0 mi Calm Calm - N/A   Mostly Cloudy
9:56 AM 63.0 °F 52.0 °F 67% 30.23 in 10.0 mi Calm Calm - N/A   Mostly Cloudy
10:56 AM 66.9 °F 54.0 °F 63% 30.23 in 10.0 mi West 3.5 mph - 0.00 in Rain Light Rain
11:56 AM 70.0 °F 55.9 °F 61% 30.24 in 10.0 mi West 5.8 mph - 0.00 in   Overcast
12:56 PM 73.0 °F 57.9 °F 59% 30.23 in 10.0 mi West 10.4 mph - N/A   Partly Cloudy
1:56 PM 73.9 °F 57.9 °F 57% 30.20 in 10.0 mi SW 6.9 mph - N/A   Clear
2:56 PM 77.0 °F 55.4 °F 47% 30.19 in 10.0 mi West 4.6 mph - N/A   Clear
3:56 PM 78.1 °F 55.9 °F 46% 30.18 in 10.0 mi Calm Calm - N/A   Clear
4:56 PM 77.0 °F 55.9 °F 48% 30.17 in 10.0 mi Calm Calm - N/A   Clear
5:56 PM 77.0 °F 55.9 °F 48% 30.18 in 10.0 mi Calm Calm - N/A   Clear
6:56 PM 73.0 °F 59.0 °F 61% 30.17 in 10.0 mi Calm Calm - N/A   Clear
7:56 PM 70.0 °F 59.0 °F 68% 30.17 in 10.0 mi Calm Calm - N/A   Clear
8:56 PM 66.9 °F 60.1 °F 79% 30.17 in 10.0 mi Calm Calm - N/A   Clear
9:56 PM 64.9 °F 59.0 °F 81% 30.18 in 10.0 mi Calm Calm - N/A   Clear
10:56 PM 62.1 °F 59.0 °F 90% 30.18 in 10.0 mi Calm Calm - N/A   Clear
11:56 PM 61.0 °F 57.9 °F 90% 30.19 in 10.0 mi Calm Calm - N/A   Clear